Time,TemperatureF,DewpointF,PressureIn,WindDirection,WindDirectionDegrees,WindSpeedMPH,WindSpeedGustMPH,Humidity,HourlyPrecipIn,Conditions,Clouds,dailyrainin,SoftwareType,DateUTC
2013-02-14 00:02:00,36.0,-99.9,29.70,North,2,22.0,26.0,-999,-99.99,,,-99.99,,2013-02-14 05:02:00,
2013-02-14 00:11:00,36.0,-99.9,29.70,North,354,20.0,23.0,-999,-99.99,,,-99.99,,2013-02-14 05:11:00,
2013-02-14 00:22:00,36.0,-99.9,29.71,North,355,20.0,23.0,-999,-99.99,,,-99.99,,2013-02-14 05:22:00,
2013-02-14 00:32:00,36.0,-99.9,29.71,North,6,18.0,22.0,-999,-99.99,,,-99.99,,2013-02-14 05:32:00,
2013-02-14 00:42:00,36.0,-99.9,29.71,North,356,18.0,22.0,-999,-99.99,,,-99.99,,2013-02-14 05:42:00,
2013-02-14 00:52:00,36.0,-99.9,29.72,North,350,17.0,21.0,-999,-99.99,,,-99.99,,2013-02-14 05:52:00,
2013-02-14 01:02:00,36.0,-99.9,29.73,NNW,339,18.0,22.0,-999,-99.99,,,-99.99,,2013-02-14 06:02:00,
2013-02-14 01:11:00,36.0,-99.9,29.73,NNW,342,17.0,21.0,-999,-99.99,,,-99.99,,2013-02-14 06:11:00,
2013-02-14 01:22:00,36.0,-99.9,29.74,NNW,340,19.0,21.0,-999,-99.99,,,-99.99,,2013-02-14 06:22:00,
2013-02-14 01:32:00,37.0,-99.9,29.75,NNW,342,17.0,20.0,-999,-99.99,,,-99.99,,2013-02-14 06:32:00,
2013-02-14 01:42:00,37.0,-99.9,29.75,NNW,341,18.0,22.0,-999,-99.99,,,-99.99,,2013-02-14 06:42:00,
2013-02-14 01:52:00,36.0,-99.9,29.75,NNW,345,18.0,21.0,-999,-99.99,,,-99.99,,2013-02-14 06:52:00,
2013-02-14 02:01:00,37.0,-99.9,29.76,NNW,348,17.0,21.0,-999,-99.99,,,-99.99,,2013-02-14 07:01:00,
2013-02-14 02:11:00,37.0,-99.9,29.76,NNW,346,16.0,19.0,-999,-99.99,,,-99.99,,2013-02-14 07:11:00,
2013-02-14 02:22:00,37.0,-99.9,29.77,NNW,340,18.0,20.0,-999,-99.99,,,-99.99,,2013-02-14 07:22:00,
2013-02-14 02:32:00,37.0,-99.9,29.78,NNW,335,17.0,20.0,-999,-99.99,,,-99.99,,2013-02-14 07:32:00,
2013-02-14 02:42:00,37.0,-99.9,29.78,NNW,332,17.0,21.0,-999,-99.99,,,-99.99,,2013-02-14 07:42:00,
2013-02-14 02:52:00,37.0,-99.9,29.80,NNW,332,20.0,23.0,-999,-99.99,,,-99.99,,2013-02-14 07:52:00,
2013-02-14 03:01:00,37.0,-99.9,29.80,NNW,335,18.0,20.0,-999,-99.99,,,-99.99,,2013-02-14 08:01:00,
2013-02-14 03:11:00,37.0,-99.9,29.81,NNW,327,16.0,21.0,-999,-99.99,,,-99.99,,2013-02-14 08:11:00,
2013-02-14 03:22:00,37.0,-99.9,29.81,NW,319,17.0,18.0,-999,-99.99,,,-99.99,,2013-02-14 08:22:00,
2013-02-14 03:32:00,37.0,-99.9,29.82,NNW,329,16.0,20.0,-999,-99.99,,,-99.99,,2013-02-14 08:32:00,
2013-02-14 03:43:00,37.0,-99.9,29.82,NW,324,17.0,19.0,-999,-99.99,,,-99.99,,2013-02-14 08:43:00,
2013-02-14 03:52:00,37.0,-99.9,29.82,NNW,333,15.0,17.0,-999,-99.99,,,-99.99,,2013-02-14 08:52:00,
2013-02-14 04:02:00,37.0,-99.9,29.82,NNW,333,9.0,11.0,-999,-99.99,,,-99.99,,2013-02-14 09:02:00,
2013-02-14 04:11:00,37.0,-99.9,29.82,NW,324,10.0,13.0,-999,-99.99,,,-99.99,,2013-02-14 09:11:00,
2013-02-14 04:22:00,37.0,-99.9,29.83,NW,318,11.0,12.0,-999,-99.99,,,-99.99,,2013-02-14 09:22:00,
2013-02-14 04:32:00,37.0,-99.9,29.83,NW,318,13.0,15.0,-999,-99.99,,,-99.99,,2013-02-14 09:32:00,
2013-02-14 04:42:00,37.0,-99.9,29.83,NW,311,12.0,14.0,-999,-99.99,,,-99.99,,2013-02-14 09:42:00,
2013-02-14 04:52:00,37.0,-99.9,29.84,NW,307,10.0,12.0,-999,-99.99,,,-99.99,,2013-02-14 09:52:00,
2013-02-14 05:02:00,37.0,-99.9,29.85,NW,310,9.0,11.0,-999,-99.99,,,-99.99,,2013-02-14 10:02:00,
2013-02-14 05:11:00,37.0,-99.9,29.85,WNW,301,11.0,12.0,-999,-99.99,,,-99.99,,2013-02-14 10:11:00,
2013-02-14 05:22:00,36.0,-99.9,29.86,WNW,300,13.0,14.0,-999,-99.99,,,-99.99,,2013-02-14 10:22:00,
2013-02-14 05:32:00,36.0,-99.9,29.87,WNW,294,12.0,15.0,-999,-99.99,,,-99.99,,2013-02-14 10:32:00,
2013-02-14 05:42:00,36.0,-99.9,29.88,WNW,287,12.0,15.0,-999,-99.99,,,-99.99,,2013-02-14 10:42:00,
2013-02-14 05:52:00,36.0,-99.9,29.89,WNW,292,11.0,13.0,-999,-99.99,,,-99.99,,2013-02-14 10:52:00,
2013-02-14 06:02:00,36.0,-99.9,29.89,WNW,290,11.0,13.0,-999,-99.99,,,-99.99,,2013-02-14 11:02:00,
2013-02-14 06:11:00,36.0,-99.9,29.89,WNW,288,11.0,13.0,-999,-99.99,,,-99.99,,2013-02-14 11:11:00,
2013-02-14 06:22:00,36.0,-99.9,29.90,WNW,291,9.0,11.0,-999,-99.99,,,-99.99,,2013-02-14 11:22:00,
2013-02-14 06:32:00,36.0,-99.9,29.90,WNW,302,12.0,13.0,-999,-99.99,,,-99.99,,2013-02-14 11:32:00,
2013-02-14 06:42:00,36.0,-99.9,29.90,WNW,302,12.0,13.0,-999,-99.99,,,-99.99,,2013-02-14 11:42:00,
2013-02-14 06:52:00,36.0,-99.9,29.91,NW,308,10.0,12.0,-999,-99.99,,,-99.99,,2013-02-14 11:52:00,
2013-02-14 07:02:00,36.0,-99.9,29.92,NW,321,11.0,12.0,-999,-99.99,,,-99.99,,2013-02-14 12:02:00,
2013-02-14 07:12:00,36.0,-99.9,29.93,NW,314,12.0,13.0,-999,-99.99,,,-99.99,,2013-02-14 12:12:00,
2013-02-14 07:22:00,36.0,-99.9,29.93,NW,312,12.0,15.0,-999,-99.99,,,-99.99,,2013-02-14 12:22:00,
2013-02-14 07:32:00,36.0,-99.9,29.93,NW,307,12.0,14.0,-999,-99.99,,,-99.99,,2013-02-14 12:32:00,
2013-02-14 07:42:00,36.0,-99.9,29.94,NW,308,9.0,11.0,-999,-99.99,,,-99.99,,2013-02-14 12:42:00,
2013-02-14 07:53:00,36.0,-99.9,29.94,WNW,300,9.0,10.0,-999,-99.99,,,-99.99,,2013-02-14 12:53:00,
2013-02-14 08:02:00,36.0,-99.9,29.95,WNW,297,7.0,8.0,-999,-99.99,,,-99.99,,2013-02-14 13:02:00,
2013-02-14 08:11:00,36.0,-99.9,29.95,West,272,6.0,8.0,-999,-99.99,,,-99.99,,2013-02-14 13:11:00,
2013-02-14 08:21:00,36.0,-99.9,29.96,West,273,7.0,8.0,-999,-99.99,,,-99.99,,2013-02-14 13:21:00,
2013-02-14 08:32:00,36.0,-99.9,29.97,WNW,293,10.0,12.0,-999,-99.99,,,-99.99,,2013-02-14 13:32:00,
2013-02-14 08:42:00,36.0,-99.9,29.97,WNW,296,9.0,11.0,-999,-99.99,,,-99.99,,2013-02-14 13:42:00,
2013-02-14 08:52:00,37.0,-99.9,29.97,NW,306,8.0,10.0,-999,-99.99,,,-99.99,,2013-02-14 13:52:00,
2013-02-14 09:01:00,37.0,-99.9,29.98,NW,306,9.0,11.0,-999,-99.99,,,-99.99,,2013-02-14 14:01:00,
2013-02-14 09:11:00,37.0,-99.9,29.98,WNW,302,11.0,13.0,-999,-99.99,,,-99.99,,2013-02-14 14:11:00,
2013-02-14 09:22:00,37.0,-99.9,29.98,NW,307,10.0,11.0,-999,-99.99,,,-99.99,,2013-02-14 14:22:00,
2013-02-14 09:32:00,37.0,-99.9,29.98,NNW,327,10.0,12.0,-999,-99.99,,,-99.99,,2013-02-14 14:32:00,
2013-02-14 09:42:00,37.0,-99.9,29.98,NW,314,11.0,12.0,-999,-99.99,,,-99.99,,2013-02-14 14:42:00,
2013-02-14 09:52:00,37.0,-99.9,29.98,NW,319,8.0,10.0,-999,-99.99,,,-99.99,,2013-02-14 14:52:00,
2013-02-14 10:02:00,38.0,-99.9,29.98,NW,320,10.0,11.0,-999,-99.99,,,-99.99,,2013-02-14 15:02:00,
2013-02-14 10:11:00,38.0,-99.9,29.98,NW,322,11.0,13.0,-999,-99.99,,,-99.99,,2013-02-14 15:11:00,
2013-02-14 10:22:00,38.0,-99.9,29.99,NW,318,13.0,14.0,-999,-99.99,,,-99.99,,2013-02-14 15:22:00,
2013-02-14 10:32:00,38.0,-99.9,29.99,NW,325,12.0,13.0,-999,-99.99,,,-99.99,,2013-02-14 15:32:00,
2013-02-14 10:42:00,38.0,-99.9,29.99,NNW,327,12.0,14.0,-999,-99.99,,,-99.99,,2013-02-14 15:42:00,
2013-02-14 10:52:00,38.0,-99.9,29.99,NW,323,11.0,12.0,-999,-99.99,,,-99.99,,2013-02-14 15:52:00,
2013-02-14 11:02:00,39.0,-99.9,30.00,NW,316,11.0,12.0,-999,-99.99,,,-99.99,,2013-02-14 16:02:00,
2013-02-14 11:11:00,39.0,-99.9,30.00,NW,319,11.0,12.0,-999,-99.99,,,-99.99,,2013-02-14 16:11:00,
2013-02-14 11:22:00,39.0,-99.9,30.00,NW,315,9.0,11.0,-999,-99.99,,,-99.99,,2013-02-14 16:22:00,
2013-02-14 11:32:00,39.0,-99.9,30.01,NNW,327,9.0,10.0,-999,-99.99,,,-99.99,,2013-02-14 16:32:00,
2013-02-14 11:42:00,39.0,-99.9,30.00,NW,326,9.0,11.0,-999,-99.99,,,-99.99,,2013-02-14 16:42:00,
2013-02-14 11:52:00,39.0,-99.9,30.00,NNW,339,8.0,10.0,-999,-99.99,,,-99.99,,2013-02-14 16:52:00,
2013-02-14 12:01:00,39.0,-99.9,30.01,NNW,341,8.0,10.0,-999,-99.99,,,-99.99,,2013-02-14 17:01:00,
2013-02-14 12:11:00,39.0,-99.9,30.01,NNW,339,8.0,10.0,-999,-99.99,,,-99.99,,2013-02-14 17:11:00,
2013-02-14 12:22:00,39.0,-99.9,29.99,North,9,10.0,11.0,-999,-99.99,,,-99.99,,2013-02-14 17:22:00,
2013-02-14 12:32:00,39.0,-99.9,30.00,North,1,8.0,10.0,-999,-99.99,,,-99.99,,2013-02-14 17:32:00,
2013-02-14 12:42:00,39.0,-99.9,29.99,North,4,8.0,9.0,-999,-99.99,,,-99.99,,2013-02-14 17:42:00,
2013-02-14 12:52:00,40.0,-99.9,30.00,NNE,26,3.0,6.0,-999,-99.99,,,-99.99,,2013-02-14 17:52:00,
2013-02-14 13:02:00,40.0,-99.9,29.99,North,7,8.0,9.0,-999,-99.99,,,-99.99,,2013-02-14 18:02:00,
2013-02-14 13:11:00,40.0,-99.9,29.99,North,3,7.0,7.0,-999,-99.99,,,-99.99,,2013-02-14 18:11:00,
2013-02-14 13:23:00,40.0,-99.9,29.98,North,6,7.0,7.0,-999,-99.99,,,-99.99,,2013-02-14 18:23:00,
2013-02-14 13:32:00,40.0,-99.9,29.99,North,2,6.0,7.0,-999,-99.99,,,-99.99,,2013-02-14 18:32:00,
2013-02-14 13:42:00,40.0,-99.9,29.99,North,9,5.0,7.0,-999,-99.99,,,-99.99,,2013-02-14 18:42:00,
2013-02-14 13:52:00,40.0,-99.9,29.99,North,4,5.0,6.0,-999,-99.99,,,-99.99,,2013-02-14 18:52:00,
2013-02-14 14:02:00,40.0,-99.9,29.99,NNE,19,5.0,5.0,-999,-99.99,,,-99.99,,2013-02-14 19:02:00,
2013-02-14 14:11:00,40.0,-99.9,29.98,North,7,6.0,7.0,-999,-99.99,,,-99.99,,2013-02-14 19:11:00,
2013-02-14 14:22:00,40.0,-99.9,29.98,North,9,7.0,9.0,-999,-99.99,,,-99.99,,2013-02-14 19:22:00,
2013-02-14 14:32:00,40.0,-99.9,29.99,North,10,6.0,7.0,-999,-99.99,,,-99.99,,2013-02-14 19:32:00,
2013-02-14 14:42:00,40.0,-99.9,30.00,NNE,27,4.0,5.0,-999,-99.99,,,-99.99,,2013-02-14 19:42:00,
2013-02-14 14:52:00,40.0,-99.9,30.00,NE,39,5.0,6.0,-999,-99.99,,,-99.99,,2013-02-14 19:52:00,
2013-02-14 15:01:00,40.0,-99.9,29.99,NE,39,4.0,5.0,-999,-99.99,,,-99.99,,2013-02-14 20:01:00,
2013-02-14 15:11:00,40.0,-99.9,29.99,NE,54,4.0,5.0,-999,-99.99,,,-99.99,,2013-02-14 20:11:00,
2013-02-14 15:22:00,40.0,-99.9,29.99,ENE,73,5.0,5.0,-999,-99.99,,,-99.99,,2013-02-14 20:22:00,
2013-02-14 15:32:00,41.0,-99.9,30.00,NE,45,4.0,5.0,-999,-99.99,,,-99.99,,2013-02-14 20:32:00,
2013-02-14 15:42:00,40.0,-99.9,29.99,ENE,64,6.0,6.0,-999,-99.99,,,-99.99,,2013-02-14 20:42:00,
2013-02-14 15:52:00,41.0,-99.9,30.00,ENE,71,3.0,3.0,-999,-99.99,,,-99.99,,2013-02-14 20:52:00,
2013-02-14 16:02:00,41.0,-99.9,29.99,ENE,70,6.0,6.0,-999,-99.99,,,-99.99,,2013-02-14 21:02:00,
2013-02-14 16:11:00,42.0,-99.9,29.99,East,93,7.0,9.0,-999,-99.99,,,-99.99,,2013-02-14 21:11:00,
2013-02-14 16:22:00,42.0,-99.9,30.00,ESE,123,6.0,8.0,-999,-99.99,,,-99.99,,2013-02-14 21:22:00,
2013-02-14 16:32:00,42.0,-99.9,30.00,SSE,153,7.0,10.0,-999,-99.99,,,-99.99,,2013-02-14 21:32:00,
2013-02-14 16:42:00,42.0,-99.9,30.00,SSE,159,8.0,10.0,-999,-99.99,,,-99.99,,2013-02-14 21:42:00,
2013-02-14 16:52:00,41.0,-99.9,30.00,SSE,151,6.0,8.0,-999,-99.99,,,-99.99,,2013-02-14 21:52:00,
2013-02-14 17:02:00,41.0,-99.9,29.99,SSE,151,6.0,7.0,-999,-99.99,,,-99.99,,2013-02-14 22:02:00,
2013-02-14 17:11:00,41.0,-99.9,29.99,SE,146,6.0,7.0,-999,-99.99,,,-99.99,,2013-02-14 22:11:00,
2013-02-14 17:21:00,41.0,-99.9,29.99,SSE,148,7.0,8.0,-999,-99.99,,,-99.99,,2013-02-14 22:21:00,
2013-02-14 17:32:00,40.0,-99.9,30.00,SSE,151,7.0,9.0,-999,-99.99,,,-99.99,,2013-02-14 22:32:00,
2013-02-14 17:42:00,40.0,-99.9,30.01,SSE,157,6.0,10.0,-999,-99.99,,,-99.99,,2013-02-14 22:42:00,
2013-02-14 17:52:00,40.0,-99.9,30.01,SSE,163,7.0,10.0,-999,-99.99,,,-99.99,,2013-02-14 22:52:00,
2013-02-14 18:01:00,39.0,-99.9,30.01,SSE,168,8.0,11.0,-999,-99.99,,,-99.99,,2013-02-14 23:01:00,
2013-02-14 18:11:00,39.0,-99.9,30.01,SSE,166,8.0,11.0,-999,-99.99,,,-99.99,,2013-02-14 23:11:00,
2013-02-14 18:22:00,39.0,-99.9,30.01,SSE,157,7.0,11.0,-999,-99.99,,,-99.99,,2013-02-14 23:22:00,
2013-02-14 18:32:00,39.0,-99.9,30.01,SSE,161,8.0,10.0,-999,-99.99,,,-99.99,,2013-02-14 23:32:00,
2013-02-14 18:42:00,39.0,-99.9,30.01,SSE,159,6.0,9.0,-999,-99.99,,,-99.99,,2013-02-14 23:42:00,
2013-02-14 18:52:00,39.0,-99.9,30.02,SSE,163,6.0,8.0,-999,-99.99,,,-99.99,,2013-02-14 23:52:00,
2013-02-14 19:02:00,39.0,-99.9,30.03,SSE,168,6.0,8.0,-999,-99.99,,,-99.99,,2013-02-15 00:02:00,
2013-02-14 19:11:00,39.0,-99.9,30.03,SSE,166,6.0,7.0,-999,-99.99,,,-99.99,,2013-02-15 00:11:00,
2013-02-14 19:22:00,39.0,-99.9,30.03,SSE,166,5.0,7.0,-999,-99.99,,,-99.99,,2013-02-15 00:22:00,
2013-02-14 19:32:00,38.0,-99.9,30.04,SSE,168,5.0,7.0,-999,-99.99,,,-99.99,,2013-02-15 00:32:00,
2013-02-14 19:42:00,38.0,-99.9,30.04,SSE,168,6.0,7.0,-999,-99.99,,,-99.99,,2013-02-15 00:42:00,
2013-02-14 19:52:00,38.0,-99.9,30.04,SSE,163,6.0,8.0,-999,-99.99,,,-99.99,,2013-02-15 00:52:00,
2013-02-14 20:02:00,38.0,-99.9,30.04,South,173,6.0,8.0,-999,-99.99,,,-99.99,,2013-02-15 01:02:00,
2013-02-14 20:11:00,38.0,-99.9,30.04,SSE,168,6.0,8.0,-999,-99.99,,,-99.99,,2013-02-15 01:11:00,
2013-02-14 20:22:00,38.0,-99.9,30.04,South,175,4.0,6.0,-999,-99.99,,,-99.99,,2013-02-15 01:22:00,
2013-02-14 20:32:00,38.0,-99.9,30.03,South,174,6.0,8.0,-999,-99.99,,,-99.99,,2013-02-15 01:32:00,
2013-02-14 20:42:00,38.0,-99.9,30.03,South,176,6.0,7.0,-999,-99.99,,,-99.99,,2013-02-15 01:42:00,
2013-02-14 20:52:00,38.0,-99.9,30.04,South,181,5.0,7.0,-999,-99.99,,,-99.99,,2013-02-15 01:52:00,
2013-02-14 21:01:00,38.0,-99.9,30.04,South,177,5.0,7.0,-999,-99.99,,,-99.99,,2013-02-15 02:01:00,
2013-02-14 21:11:00,38.0,-99.9,30.04,South,179,6.0,7.0,-999,-99.99,,,-99.99,,2013-02-15 02:11:00,
2013-02-14 21:21:00,37.0,-99.9,30.04,South,183,6.0,9.0,-999,-99.99,,,-99.99,,2013-02-15 02:21:00,
2013-02-14 21:32:00,38.0,-99.9,30.05,South,188,5.0,8.0,-999,-99.99,,,-99.99,,2013-02-15 02:32:00,
2013-02-14 21:42:00,37.0,-99.9,30.04,South,190,5.0,7.0,-999,-99.99,,,-99.99,,2013-02-15 02:42:00,
2013-02-14 21:52:00,37.0,-99.9,30.04,South,180,5.0,8.0,-999,-99.99,,,-99.99,,2013-02-15 02:52:00,
2013-02-14 22:02:00,37.0,-99.9,30.04,South,187,5.0,7.0,-999,-99.99,,,-99.99,,2013-02-15 03:02:00,
2013-02-14 22:11:00,37.0,-99.9,30.04,South,187,5.0,7.0,-999,-99.99,,,-99.99,,2013-02-15 03:11:00,
2013-02-14 22:22:00,37.0,-99.9,30.04,SSW,200,6.0,8.0,-999,-99.99,,,-99.99,,2013-02-15 03:22:00,
2013-02-14 22:32:00,37.0,-99.9,30.04,SSW,195,6.0,8.0,-999,-99.99,,,-99.99,,2013-02-15 03:32:00,
2013-02-14 22:42:00,37.0,-99.9,30.05,SSW,193,6.0,9.0,-999,-99.99,,,-99.99,,2013-02-15 03:42:00,
2013-02-14 22:52:00,37.0,-99.9,30.05,SSW,202,6.0,9.0,-999,-99.99,,,-99.99,,2013-02-15 03:52:00,
2013-02-14 23:02:00,37.0,-99.9,30.05,SSW,197,6.0,11.0,-999,-99.99,,,-99.99,,2013-02-15 04:02:00,
2013-02-14 23:11:00,37.0,-99.9,30.05,SSW,198,7.0,10.0,-999,-99.99,,,-99.99,,2013-02-15 04:11:00,
2013-02-14 23:22:00,37.0,-99.9,30.05,SSW,200,5.0,9.0,-999,-99.99,,,-99.99,,2013-02-15 04:22:00,
2013-02-14 23:32:00,37.0,-99.9,30.05,SSW,208,6.0,10.0,-999,-99.99,,,-99.99,,2013-02-15 04:32:00,
2013-02-14 23:42:00,37.0,-99.9,30.06,SSW,209,6.0,9.0,-999,-99.99,,,-99.99,,2013-02-15 04:42:00,
2013-02-14 23:52:00,37.0,-99.9,30.05,SSW,209,7.0,10.0,-999,-99.99,,,-99.99,,2013-02-15 04:52:00,